When you browse on this site, cookies collect data to enhance your experience and personalize the content and advertising you see.
Visit our Privacy Policy to learn more. By continuing to use the site, you agree to this use of cookies and data.
  • In Schweiz
  • Länderverzeichnis
  • Für 7 Tage
  • Wassertemperatur
  • Wetterkarte
  • Widgets
  • user-avatar
    Anmelden

    Stündliche Wetter Linares

    Heute, 16 Oktober, Mittwoch

    Zeit Temperatur Niederschläge Wind Luftdruck Luftfeuchtigkeit
    00:00 +13°C° 0 mm 1 m/S 729 mmHg 46%
    01:00 +12°C° 0 mm 1 m/S 728 mmHg 47%
    02:00 +11°C° 0 mm 0 m/S 728 mmHg 49%
    03:00 +10°C° 0 mm 0 m/S 728 mmHg 51%
    04:00 +11°C° 0 mm 1 m/S 728 mmHg 51%
    05:00 +11°C° 0 mm 1 m/S 728 mmHg 51%
    06:00 +11°C° 0 mm 1 m/S 728 mmHg 51%
    07:00 +12°C° 0 mm 0 m/S 728 mmHg 45%
    08:00 +14°C° 0 mm 0 m/S 729 mmHg 39%
    09:00 +16°C° 0 mm 0 m/S 729 mmHg 33%
    10:00 +20°C° 0 mm 1 m/S 729 mmHg 29%
    11:00 +22°C° 0 mm 1 m/S 729 mmHg 25%
    12:00 +23°C° 0 mm 1 m/S 728 mmHg 21%
    13:00 +24°C° 0 mm 1 m/S 728 mmHg 20%
    14:00 +24°C° 0 mm 2 m/S 727 mmHg 18%
    15:00 +25°C° 0 mm 2 m/S 727 mmHg 16%
    16:00 +23°C° 0 mm 2 m/S 727 mmHg 19%
    17:00 +20°C° 0 mm 2 m/S 727 mmHg 21%
    18:00 +19°C° 0 mm 1 m/S 727 mmHg 23%
    19:00 +18°C° 0 mm 1 m/S 727 mmHg 25%
    20:00 +18°C° 0 mm 1 m/S 727 mmHg 27%
    21:00 +15°C° 0 mm 0 m/S 727 mmHg 29%
    22:00 +14°C° 0 mm 0 m/S 727 mmHg 30%
    23:00 +14°C° 0 mm 0 m/S 727 mmHg 31%

    Morgen, 17 Oktober, Donnerstag

    Zeit Temperatur Niederschläge Wind Luftdruck Luftfeuchtigkeit
    00:00 +14°C° 0 mm 0 m/S 727 mmHg 32%
    01:00 +13°C° 0 mm 0 m/S 727 mmHg 33%
    02:00 +13°C° 0 mm 0 m/S 726 mmHg 33%
    03:00 +12°C° 0 mm 0 m/S 726 mmHg 34%
    04:00 +12°C° 0 mm 0 m/S 726 mmHg 35%
    05:00 +11°C° 0 mm 0 m/S 726 mmHg 36%
    06:00 +11°C° 0 mm 0 m/S 726 mmHg 37%
    07:00 +13°C° 0 mm 0 m/S 727 mmHg 33%
    08:00 +16°C° 0 mm 1 m/S 727 mmHg 30%
    09:00 +19°C° 0 mm 1 m/S 728 mmHg 26%
    10:00 +21°C° 0 mm 1 m/S 728 mmHg 24%
    11:00 +23°C° 0 mm 2 m/S 728 mmHg 22%
    12:00 +24°C° 0 mm 3 m/S 728 mmHg 20%
    13:00 +24°C° 0 mm 3 m/S 728 mmHg 20%
    14:00 +25°C° 0 mm 3 m/S 727 mmHg 20%
    15:00 +25°C° 0 mm 3 m/S 727 mmHg 19%
    16:00 +24°C° 0 mm 2 m/S 727 mmHg 23%
    17:00 +21°C° 0 mm 2 m/S 727 mmHg 26%
    18:00 +19°C° 0 mm 2 m/S 727 mmHg 29%
    19:00 +19°C° 0 mm 1 m/S 727 mmHg 31%
    20:00 +19°C° 0 mm 1 m/S 727 mmHg 34%
    21:00 +16°C° 0 mm 0 m/S 728 mmHg 36%
    22:00 +15°C° 0 mm 0 m/S 728 mmHg 37%
    23:00 +15°C° 0 mm 0 m/S 728 mmHg 39%

    übermorgen, 18 Oktober, Freitag

    Zeit Temperatur Niederschläge Wind Luftdruck Luftfeuchtigkeit
    00:00 +14°C° 0 mm 0 m/S 728 mmHg 40%
    01:00 +14°C° 0 mm 0 m/S 727 mmHg 44%
    02:00 +13°C° 0 mm 0 m/S 727 mmHg 47%
    03:00 +13°C° 0 mm 0 m/S 727 mmHg 50%
    04:00 +13°C° 0 mm 0 m/S 727 mmHg 52%
    05:00 +13°C° 0 mm 0 m/S 727 mmHg 54%
    06:00 +12°C° 0 mm 0 m/S 727 mmHg 55%
    07:00 +14°C° 0 mm 0 m/S 727 mmHg 51%
    08:00 +16°C° 0 mm 0 m/S 727 mmHg 47%
    09:00 +18°C° 0 mm 0 m/S 728 mmHg 42%
    10:00 +22°C° 0 mm 1 m/S 728 mmHg 40%
    11:00 +23°C° 0 mm 1 m/S 727 mmHg 37%
    12:00 +25°C° 0 mm 2 m/S 727 mmHg 35%
    13:00 +25°C° 0 mm 2 m/S 727 mmHg 36%
    14:00 +26°C° 0 mm 3 m/S 726 mmHg 38%
    15:00 +26°C° 0 mm 3 m/S 726 mmHg 40%
    16:00 +25°C° 0 mm 3 m/S 726 mmHg 46%
    17:00 +23°C° 0 mm 2 m/S 725 mmHg 52%
    18:00 +21°C° 0 mm 2 m/S 725 mmHg 58%
    19:00 +21°C° 0 mm 1 m/S 725 mmHg 62%
    20:00 +20°C° 0 mm 1 m/S 725 mmHg 66%
    21:00 +19°C° 0 mm 1 m/S 725 mmHg 69%
    22:00 +19°C° 0 mm 1 m/S 725 mmHg 72%
    23:00 +19°C° 0 mm 1 m/S 725 mmHg 74%

    19 Oktober, Samstag

    Zeit Temperatur Niederschläge Wind Luftdruck Luftfeuchtigkeit
    00:00 +18°C° 0 mm 1 m/S 725 mmHg 77%
    01:00 +18°C° 0 mm 1 m/S 724 mmHg 82%
    02:00 +16°C° 0 mm 1 m/S 724 mmHg 86%
    03:00 +16°C° 0 mm 1 m/S 724 mmHg 91%
    04:00 +16°C° 0.2 mm 1 m/S 724 mmHg 92%
    05:00 +16°C° 0.2 mm 1 m/S 724 mmHg 92%
    06:00 +16°C° 0.2 mm 1 m/S 724 mmHg 92%
    07:00 +18°C° 0.3 mm 2 m/S 724 mmHg 85%
    08:00 +19°C° 0.3 mm 2 m/S 724 mmHg 78%
    09:00 +20°C° 0.3 mm 3 m/S 725 mmHg 70%
    10:00 +21°C° 0.1 mm 4 m/S 724 mmHg 63%
    11:00 +22°C° 0.1 mm 5 m/S 724 mmHg 56%
    12:00 +23°C° 0.1 mm 5 m/S 724 mmHg 49%
    13:00 +23°C° 0 mm 5 m/S 724 mmHg 48%
    14:00 +23°C° 0 mm 5 m/S 724 mmHg 46%
    15:00 +23°C° 0 mm 5 m/S 723 mmHg 45%
    16:00 +21°C° 0 mm 5 m/S 723 mmHg 48%
    17:00 +20°C° 0 mm 4 m/S 723 mmHg 52%
    18:00 +19°C° 0 mm 3 m/S 723 mmHg 55%
    19:00 +18°C° 0 mm 2 m/S 723 mmHg 57%
    20:00 +17°C° 0 mm 2 m/S 723 mmHg 58%
    21:00 +16°C° 0 mm 1 m/S 724 mmHg 60%
    22:00 +15°C° 0 mm 1 m/S 724 mmHg 60%
    23:00 +15°C° 0 mm 1 m/S 724 mmHg 60%

    20 Oktober, Sonntag

    Zeit Temperatur Niederschläge Wind Luftdruck Luftfeuchtigkeit
    00:00 +15°C° 0 mm 2 m/S 724 mmHg 60%
    01:00 +14°C° 0 mm 2 m/S 723 mmHg 63%
    02:00 +13°C° 0 mm 2 m/S 723 mmHg 66%
    03:00 +13°C° 0 mm 2 m/S 723 mmHg 69%
    04:00 +12°C° 0 mm 1 m/S 723 mmHg 72%
    05:00 +12°C° 0 mm 1 m/S 723 mmHg 74%
    06:00 +11°C° 0 mm 1 m/S 723 mmHg 76%
    07:00 +12°C° 0 mm 1 m/S 724 mmHg 69%
    08:00 +14°C° 0 mm 1 m/S 724 mmHg 62%
    09:00 +15°C° 0 mm 2 m/S 724 mmHg 55%
    10:00 +16°C° 0 mm 2 m/S 724 mmHg 49%
    11:00 +18°C° 0 mm 3 m/S 724 mmHg 43%
    12:00 +19°C° 0 mm 3 m/S 724 mmHg 36%
    13:00 +19°C° 0 mm 3 m/S 724 mmHg 34%
    14:00 +20°C° 0 mm 3 m/S 723 mmHg 32%
    15:00 +20°C° 0 mm 4 m/S 723 mmHg 29%
    16:00 +18°C° 0 mm 3 m/S 723 mmHg 33%
    17:00 +17°C° 0 mm 3 m/S 723 mmHg 36%
    18:00 +15°C° 0 mm 2 m/S 723 mmHg 39%
    19:00 +15°C° 0 mm 2 m/S 723 mmHg 41%
    20:00 +14°C° 0 mm 1 m/S 723 mmHg 44%
    21:00 +13°C° 0 mm 1 m/S 723 mmHg 46%
    22:00 +12°C° 0 mm 1 m/S 723 mmHg 48%
    23:00 +12°C° 0 mm 1 m/S 724 mmHg 49%

    21 Oktober, Montag

    Zeit Temperatur Niederschläge Wind Luftdruck Luftfeuchtigkeit
    00:00 +11°C° 0 mm 1 m/S 724 mmHg 51%
    01:00 +11°C° 0 mm 1 m/S 723 mmHg 53%
    02:00 +10°C° 0 mm 1 m/S 723 mmHg 55%
    03:00 +10°C° 0 mm 1 m/S 723 mmHg 57%
    04:00 +10°C° 0 mm 1 m/S 723 mmHg 57%
    05:00 +10°C° 0 mm 1 m/S 723 mmHg 58%
    06:00 +10°C° 0 mm 1 m/S 723 mmHg 59%
    07:00 +10°C° 0 mm 2 m/S 723 mmHg 57%
    08:00 +12°C° 0 mm 2 m/S 723 mmHg 55%
    09:00 +12°C° 0 mm 3 m/S 724 mmHg 54%
    10:00 +14°C° 0 mm 4 m/S 723 mmHg 49%
    11:00 +15°C° 0 mm 4 m/S 723 mmHg 44%
    12:00 +16°C° 0 mm 5 m/S 723 mmHg 39%
    13:00 +16°C° 0.1 mm 5 m/S 723 mmHg 38%
    14:00 +16°C° 0.1 mm 5 m/S 722 mmHg 38%
    15:00 +16°C° 0.1 mm 5 m/S 722 mmHg 37%
    16:00 +15°C° 0.2 mm 4 m/S 722 mmHg 42%
    17:00 +13°C° 0.2 mm 3 m/S 722 mmHg 47%
    18:00 +13°C° 0.2 mm 2 m/S 722 mmHg 52%
    19:00 +13°C° 0.3 mm 2 m/S 722 mmHg 55%
    20:00 +12°C° 0.3 mm 2 m/S 722 mmHg 58%
    21:00 +12°C° 0.3 mm 2 m/S 722 mmHg 61%
    22:00 +11°C° 0.1 mm 1 m/S 722 mmHg 62%
    23:00 +11°C° 0.1 mm 1 m/S 722 mmHg 64%
    Mehr zeigen